Temp
-7 -7 -7 -7 -7 -7 -7 -7 -7 -7 -7 -7 -7 -7 -8 -8 -8 -8 -8 -8 -8 -8 -8 -8 -8 -8 -8 -8 -8 -8 -8 -8 -8 -8 -8 -8 -8 -9 -9 -9 -9 -9
-7 -7 -7 -7 -7 -8 -8 -8 -8 -8 -8 -8 -8 -8 -8 -8 -8 -8 -8 -8 -8 -8 -8 -8 -8 -8 -8 -8 -8 -8 -8 -8 -8 -8 -8 -8 -8 -9 -9 -9 -9 -9
-7 -7 -7 -7 -8 -8 -8 -8 -8 -8 -8 -8 -8 -8 -8 -8 -8 -8 -8 -8 -8 -8 -8 -8 -8 -8 -8 -8 -8 -8 -8 -8 -8 -8 -8 -8 -8 -9 -9 -9 -9 -9
-7 -7 -7 -8 -8 -8 -8 -8 -8 -8 -8 -8 -8 -8 -9 -9 -8 -8 -8 -8 -8 -8 -8 -8 -8 -8 -8 -8 -8 -8 -8 -8 -8 -8 -8 -8 -9 -9 -9 -9 -9 -9
-7 -8 -8 -8 -8 -8 -8 -8 -8 -8 -8 -8 -8 -9 -9 -9 -9 -9 -9 -8 -8 -8 -8 -9 -9 -9 -9 -9 -8 -8 -8 -8 -8 -8 -8 -9 -9 -9 -9 -9 -9 -9
-8 -8 -8 -8 -8 -8 -8 -8 -8 -8 -8 -8 -8 -9 -9 -9 -9 -9 -9 -9 -9 -9 -9 -9 -9 -9 -9 -9 -9 -8 -8 -8 -8 -8 -9 -9 -9 -9 -9 -9 -9 -9
-8 -8 -8 -8 -8 -8 -8 -8 -8 -8 -8 -8 -9 -9 -9 -9 -9 -9 -9 -9 -9 -9 -9 -9 -9 -9 -9 -9 -9 -9 -9 -9 -8 -8 -9 -9 -9 -9 -9 -9 -9 -9
-8 -8 -8 -8 -8 -8 -8 -8 -8 -8 -9 -9 -9 -9 -9 -9 -9 -10 -10 -10 -10 -10 -10 -9 -9 -9 -9 -9 -9 -9 -9 -9 -9 -9 -9 -9 -9 -9 -9 -9 -9 -9
-7 -8 -8 -8 -8 -8 -8 -8 -9 -8 -9 -9 -9 -9 -9 -9 -10 -10 -10 -10 -10 -10 -10 -9 -9 -9 -9 -9 -10 -10 -9 -9 -9 -9 -9 -9 -9 -10 -10 -10 -10 -10
-7 -8 -8 -8 -8 -9 -9 -9 -9 -9 -9 -9 -9 -9 -9 -9 -9 -9 -10 -10 -10 -10 -10 -9 -9 -9 -9 -9 -10 -10 -10 -9 -9 -9 -9 -9 -10 -10 -10 -10 -10 -10
-8 -8 -8 -8 -9 -9 -9 -8 -8 -9 -9 -9 -9 -9 -10 -9 -9 -9 -10 -10 -10 -10 -9 -9 -9 -9 -9 -9 -9 -10 -10 -10 -10 -10 -10 -10 -10 -10 -10 -10 -10 -10
-8 -8 -8 -8 -9 -9 -9 -8 -8 -9 -9 -9 -9 -9 -10 -9 -9 -9 -9 -9 -10 -10 -9 -9 -9 -9 -9 -9 -10 -10 -10 -10 -10 -10 -10 -10 -10 -10 -10 -10 -10 -10
-8 -8 -8 -8 -8 -9 -8 -8 -8 -9 -9 -9 -9 -9 -9 -9 -9 -9 -9 -9 -10 -10 -9 -10 -10 -10 -9 -9 -10 -10 -10 -10 -10 -10 -10 -10 -10 -10 -10 -10 -10 -10
-8 -8 -8 -8 -8 -8 -8 -8 -8 -9 -9 -9 -9 -9 -9 -9 -9 -9 -9 -9 -9 -9 -9 -10 -10 -10 -9 -10 -10 -10 -10 -10 -10 -10 -10 -10 -10 -10 -10 -10 -10 -10
-8 -8 -8 -8 -8 -8 -8 -8 -8 -8 -8 -9 -9 -9 -9 -9 -8 -9 -9 -9 -9 -9 -9 -10 -10 -10 -10 -10 -10 -10 -10 -10 -10 -10 -11 -11 -11 -11 -10 -10 -10 -10
-8 -8 -8 -9 -8 -8 -8 -8 -8 -8 -8 -9 -8 -9 -10 -9 -8 -9 -9 -9 -9 -9 -9 -10 -10 -10 -10 -10 -10 -10 -10 -11 -11 -11 -11 -11 -11 -11 -10 -10 -10 -10
-8 -8 -8 -8 -8 -8 -8 -8 -8 -8 -9 -9 -8 -8 -9 -9 -9 -9 -9 -9 -9 -9 -10 -10 -10 -10 -10 -10 -10 -10 -10 -11 -11 -11 -11 -11 -11 -11 -11 -11 -11 -11
-8 -8 -8 -8 -8 -8 -8 -8 -8 -8 -9 -9 -8 -8 -8 -9 -9 -10 -9 -9 -9 -9 -10 -10 -10 -10 -10 -10 -10 -10 -10 -11 -11 -11 -11 -11 -11 -11 -11 -11 -11 -11
-8 -8 -8 -8 -8 -8 -9 -9 -8 -8 -8 -8 -8 -8 -8 -9 -10 -10 -10 -10 -10 -10 -10 -10 -10 -10 -10 -10 -10 -10 -10 -11 -11 -11 -12 -12 -11 -11 -11 -11 -11 -11
-8 -8 -8 -8 -8 -8 -9 -9 -9 -9 -9 -8 -9 -9 -9 -9 -9 -9 -9 -10 -10 -10 -10 -10 -10 -10 -10 -10 -10 -11 -11 -11 -11 -11 -12 -12 -12 -12 -12 -12 -12 -12
-8 -9 -8 -8 -8 -9 -9 -9 -9 -9 -9 -9 -9 -9 -9 -9 -9 -9 -9 -10 -10 -10 -10 -10 -10 -10 -11 -11 -11 -11 -11 -11 -11 -12 -12 -12 -12 -12 -12 -12 -12 -12
-9 -9 -8 -8 -8 -9 -9 -9 -9 -9 -9 -9 -9 -9 -9 -9 -9 -9 -9 -10 -10 -10 -10 -10 -11 -11 -11 -11 -11 -11 -11 -12 -12 -12 -12 -12 -12 -12 -12 -12 -12 -12
-9 -9 -9 -9 -8 -9 -9 -9 -9 -9 -9 -9 -9 -9 -9 -10 -10 -9 -9 -10 -10 -10 -10 -11 -11 -11 -11 -11 -12 -12 -12 -12 -13 -13 -13 -12 -12 -12 -12 -12 -12 -12
-9 -9 -9 -9 -9 -9 -9 -8 -8 -9 -9 -9 -9 -9 -9 -9 -10 -9 -10 -10 -10 -10 -11 -11 -11 -11 -11 -11 -12 -12 -12 -12 -12 -13 -13 -13 -12 -13 -13 -13 -12 -12
-9 -9 -9 -9 -9 -9 -9 -8 -8 -9 -9 -9 -9 -9 -9 -9 -9 -9 -10 -10 -10 -11 -11 -11 -11 -11 -11 -12 -12 -12 -12 -12 -12 -13 -13 -13 -13 -13 -13 -13 -13 -13
-9 -9 -9 -9 -9 -9 -9 -9 -9 -9 -9 -9 -9 -9 -9 -9 -9 -9 -10 -10 -10 -11 -11 -11 -11 -11 -12 -12 -12 -12 -12 -12 -13 -13 -13 -13 -13 -13 -13 -13 -13 -13
Height
5907 5906 5906 5905 5904 5904 5904 5904 5904 5904 5903 5902 5900 5899 5898 5897 5897 5897 5896 5896 5895 5894 5893 5892 5891 5890 5888 5887 5887 5886 5885 5884 5883 5882 5881 5880 5878 5877 5875 5874 5873 5872
5905 5904 5903 5903 5902 5902 5902 5902 5902 5902 5901 5900 5898 5897 5895 5895 5894 5894 5893 5893 5892 5891 5890 5889 5887 5886 5885 5884 5884 5883 5882 5881 5880 5879 5878 5877 5875 5874 5872 5871 5870 5868
5903 5902 5901 5901 5901 5901 5900 5900 5899 5899 5899 5898 5896 5895 5893 5892 5891 5891 5890 5890 5889 5888 5886 5885 5884 5883 5882 5881 5881 5880 5879 5878 5877 5875 5874 5873 5872 5870 5869 5868 5867 5865
5901 5900 5899 5899 5899 5899 5899 5898 5897 5896 5896 5895 5894 5893 5892 5890 5889 5888 5888 5887 5886 5884 5883 5881 5880 5879 5879 5878 5878 5877 5876 5874 5873 5872 5871 5870 5868 5867 5866 5865 5864 5862
5899 5898 5897 5897 5897 5897 5896 5895 5894 5893 5892 5892 5891 5890 5889 5888 5887 5886 5886 5884 5883 5881 5879 5878 5876 5876 5875 5875 5874 5873 5872 5871 5869 5868 5867 5866 5865 5863 5862 5861 5860 5859
5896 5895 5895 5895 5895 5895 5893 5891 5890 5889 5889 5889 5888 5887 5886 5885 5884 5884 5883 5881 5880 5878 5876 5874 5873 5873 5872 5872 5871 5870 5869 5867 5866 5865 5864 5862 5861 5860 5859 5858 5856 5855
5893 5892 5892 5892 5892 5892 5890 5889 5888 5887 5886 5885 5884 5883 5882 5881 5881 5880 5879 5877 5876 5875 5873 5872 5870 5870 5869 5868 5868 5867 5866 5865 5863 5862 5860 5859 5858 5857 5856 5854 5853 5852
5889 5889 5889 5889 5889 5889 5888 5887 5886 5884 5882 5881 5880 5879 5878 5877 5876 5876 5874 5873 5872 5871 5870 5869 5868 5866 5865 5865 5864 5864 5863 5862 5860 5859 5857 5855 5854 5853 5852 5851 5850 5848
5886 5887 5887 5886 5886 5885 5884 5884 5883 5880 5878 5877 5876 5876 5875 5872 5871 5871 5869 5868 5867 5867 5866 5865 5864 5863 5862 5861 5861 5860 5859 5858 5857 5855 5853 5852 5850 5849 5848 5847 5846 5844
5883 5885 5886 5885 5883 5881 5880 5879 5878 5876 5874 5873 5872 5872 5871 5868 5866 5866 5865 5863 5863 5863 5863 5862 5861 5860 5858 5858 5857 5856 5856 5855 5853 5851 5849 5848 5846 5845 5844 5843 5842 5840
5882 5883 5883 5882 5880 5877 5875 5875 5873 5871 5870 5870 5868 5867 5866 5864 5862 5862 5861 5859 5859 5859 5859 5858 5857 5856 5855 5854 5853 5852 5851 5850 5849 5847 5845 5843 5842 5841 5840 5839 5838 5836
5879 5879 5878 5877 5876 5874 5872 5871 5869 5867 5865 5866 5865 5863 5861 5860 5857 5856 5856 5856 5855 5855 5855 5855 5853 5852 5851 5850 5849 5848 5847 5846 5844 5842 5840 5839 5838 5837 5836 5835 5833 5832
5875 5874 5872 5871 5870 5869 5868 5866 5865 5863 5861 5861 5860 5859 5858 5856 5852 5850 5851 5852 5851 5851 5851 5850 5849 5848 5848 5846 5845 5843 5842 5841 5839 5837 5836 5834 5834 5833 5832 5831 5829 5827
5872 5870 5867 5865 5865 5864 5863 5861 5860 5858 5855 5855 5855 5853 5853 5852 5848 5846 5847 5847 5846 5846 5846 5846 5845 5844 5843 5842 5840 5839 5837 5836 5834 5832 5831 5830 5829 5829 5827 5826 5824 5822
5869 5866 5863 5861 5858 5857 5858 5858 5855 5853 5850 5850 5849 5847 5848 5848 5845 5844 5844 5843 5842 5842 5841 5841 5841 5840 5839 5837 5835 5834 5832 5831 5829 5828 5827 5826 5825 5824 5823 5821 5819 5816
5866 5864 5860 5857 5852 5850 5853 5855 5852 5848 5846 5844 5841 5838 5839 5842 5841 5840 5841 5840 5839 5839 5837 5837 5836 5835 5834 5832 5830 5829 5827 5826 5825 5823 5822 5821 5820 5819 5817 5815 5813 5811
5863 5861 5858 5854 5848 5846 5847 5848 5846 5845 5842 5838 5834 5830 5830 5835 5837 5837 5836 5836 5835 5834 5832 5832 5832 5831 5829 5827 5825 5824 5822 5821 5820 5819 5817 5816 5815 5814 5812 5810 5807 5805
5859 5857 5854 5851 5846 5843 5841 5839 5838 5839 5837 5834 5831 5827 5826 5830 5833 5832 5831 5831 5830 5828 5827 5827 5827 5825 5824 5822 5821 5819 5817 5816 5815 5814 5812 5811 5810 5808 5806 5804 5802 5800
5855 5853 5851 5847 5844 5841 5838 5835 5832 5831 5830 5829 5827 5825 5825 5827 5828 5827 5827 5826 5825 5824 5823 5822 5822 5821 5819 5818 5816 5814 5812 5811 5810 5809 5807 5806 5805 5804 5802 5799 5797 5794
5851 5849 5846 5843 5841 5838 5835 5833 5830 5828 5826 5825 5823 5822 5822 5823 5823 5822 5822 5821 5820 5819 5818 5817 5817 5815 5814 5813 5811 5808 5807 5806 5805 5804 5802 5801 5800 5799 5796 5794 5791 5789
5846 5844 5842 5839 5837 5834 5832 5829 5826 5825 5824 5822 5820 5819 5819 5819 5819 5818 5817 5816 5815 5814 5813 5812 5811 5810 5809 5807 5805 5802 5801 5801 5800 5799 5797 5796 5794 5793 5790 5788 5786 5784
5841 5839 5837 5834 5832 5830 5828 5825 5822 5821 5821 5819 5818 5817 5816 5815 5815 5813 5812 5811 5810 5809 5808 5807 5806 5804 5803 5801 5799 5797 5796 5796 5795 5793 5792 5790 5788 5786 5785 5782 5780 5778
5837 5834 5832 5829 5828 5825 5823 5821 5819 5818 5817 5816 5815 5814 5812 5811 5810 5809 5808 5806 5805 5804 5803 5801 5799 5797 5795 5794 5793 5792 5791 5790 5789 5788 5786 5785 5782 5779 5778 5777 5775 5773
5831 5829 5826 5824 5823 5821 5819 5817 5815 5814 5813 5812 5811 5810 5808 5807 5806 5805 5803 5802 5800 5800 5798 5796 5793 5791 5789 5788 5787 5786 5785 5784 5783 5782 5782 5780 5777 5774 5773 5771 5769 5767
5826 5823 5821 5819 5817 5816 5814 5812 5810 5809 5808 5808 5806 5805 5803 5803 5801 5800 5799 5797 5796 5795 5792 5790 5788 5785 5783 5781 5781 5781 5780 5778 5777 5777 5776 5773 5771 5769 5767 5765 5763 5761
5820 5818 5815 5813 5812 5810 5808 5806 5804 5803 5803 5802 5801 5800 5799 5798 5797 5796 5795 5793 5791 5789 5787 5785 5782 5779 5777 5777 5777 5776 5774 5772 5772 5771 5770 5768 5765 5763 5761 5759 5757 5755
Wind_Speed
16 15 16 17 17 18 18 18 18 19 20 21 22 23 22 22 21 22 23 23 22 22 21 21 20 20 20 20 21 22 23 23 23 23 24 24 24 24 25 26 27 27
16 16 17 18 18 18 19 19 20 20 20 21 22 24 24 23 22 22 23 24 23 23 22 22 21 21 22 21 22 23 23 23 24 24 24 25 25 26 26 26 27 28
16 17 18 19 19 19 20 22 23 23 23 23 24 25 26 25 24 23 23 23 23 23 23 22 22 22 22 22 22 23 24 24 24 25 26 26 27 26 26 26 27 28
17 19 20 21 21 21 22 25 27 27 27 28 28 28 28 27 27 26 24 24 24 24 23 23 22 22 22 22 23 24 25 25 25 25 27 27 27 26 25 25 27 29
19 21 22 23 23 23 24 27 29 29 29 30 31 31 31 30 30 29 26 26 26 25 23 22 22 22 23 23 24 25 26 26 26 27 27 27 26 25 25 26 28 30
20 22 23 23 22 23 25 28 31 31 31 31 31 32 33 33 34 33 31 30 30 27 24 22 21 22 23 24 25 27 28 28 28 28 28 27 26 25 25 27 29 32
21 23 24 23 22 23 26 29 31 33 34 33 32 32 33 35 37 37 36 35 33 30 27 24 22 23 25 26 27 28 29 30 30 29 28 27 27 27 27 28 30 33
24 24 24 25 25 25 27 29 31 34 35 35 35 35 35 38 39 39 39 38 35 32 30 26 23 24 27 28 29 30 30 31 31 30 29 28 28 28 28 28 31 34
25 24 25 27 27 28 29 29 31 34 35 36 37 37 38 41 41 39 41 40 34 31 29 26 25 26 28 29 30 31 31 32 32 31 30 29 29 29 29 30 32 35
25 25 25 27 28 29 30 30 30 33 36 37 38 39 39 42 41 40 41 36 29 28 28 26 26 27 28 29 30 33 34 34 35 33 30 30 30 31 32 33 35 37
26 26 25 25 26 27 28 28 29 32 35 35 38 40 39 40 41 41 39 31 25 25 28 27 28 28 28 29 30 33 35 36 37 35 32 31 32 32 33 34 35 37
27 27 26 24 25 26 28 29 31 34 36 36 38 39 39 42 44 42 37 31 28 29 29 28 29 29 28 29 31 32 33 36 37 35 33 32 32 32 32 33 34 36
29 28 28 27 27 27 30 32 33 36 38 38 38 38 38 41 41 35 31 31 32 32 30 29 29 28 29 31 32 32 33 35 36 36 34 33 32 32 32 33 35 37
27 28 29 30 31 31 31 32 35 38 41 41 41 40 38 35 30 26 28 31 31 29 28 28 27 27 29 32 31 32 34 35 36 36 35 34 33 33 33 34 36 37
26 27 30 33 35 35 34 34 38 42 43 45 46 46 40 30 23 23 27 29 28 27 28 27 26 27 30 31 31 33 35 36 36 36 35 35 35 35 35 36 37 38
26 28 31 34 38 39 36 35 38 41 43 47 52 54 47 34 23 21 23 24 25 28 30 28 27 28 30 30 31 33 35 35 36 36 36 36 36 36 36 37 38 39
28 30 32 35 39 41 40 39 39 38 41 45 50 52 45 36 24 21 21 23 24 28 30 29 28 29 30 31 33 34 35 35 35 36 37 37 37 36 36 37 38 38
31 33 34 36 41 43 43 45 43 39 40 41 43 44 36 28 23 24 22 23 25 29 31 31 30 31 33 34 34 34 34 34 36 37 38 37 36 35 34 35 37 38
31 33 36 38 42 44 45 47 46 43 42 41 38 38 32 27 28 31 26 25 27 30 33 33 33 34 36 37 36 35 34 35 36 38 38 37 34 33 33 34 35 37
30 32 36 39 42 45 45 46 46 46 44 41 38 35 31 28 31 32 27 27 29 32 34 34 35 37 39 38 37 36 36 36 36 38 39 36 32 31 33 34 34 36
32 34 37 40 42 44 45 46 46 46 44 41 38 35 31 29 31 30 27 28 31 33 34 34 36 38 40 39 38 38 38 37 37 39 38 34 32 33 33 34 36 37
35 36 38 40 41 42 43 44 47 46 43 39 37 35 34 33 32 30 28 30 32 34 34 35 37 39 40 40 40 40 39 37 36 37 37 36 37 37 35 35 37 39
38 39 39 40 41 41 42 43 46 46 41 37 35 35 34 32 31 30 31 32 34 33 34 36 39 41 42 42 41 40 39 37 36 36 36 36 37 36 36 38 39 39
41 42 42 41 41 41 42 43 45 45 40 36 34 32 30 30 31 33 33 33 33 32 33 37 40 43 44 43 39 38 39 38 35 32 32 33 34 37 40 42 41 41
44 45 44 43 43 43 42 43 45 44 41 37 35 33 33 34 35 35 33 32 31 32 35 39 41 44 47 44 39 38 40 38 32 29 30 33 36 39 42 42 42 43
46 45 44 44 44 44 43 44 45 45 42 38 37 37 38 36 34 34 32 30 30 33 37 40 44 48 48 42 36 36 36 33 30 30 32 34 37 40 41 42 43 44
Wind_Direction
291 295 299 301 304 307 311 314 315 315 315 314 314 315 315 313 310 307 304 304 304 303 302 300 298 297 297 297 297 300 304 305 304 304 304 307 309 311 312 311 311 313
286 290 296 299 302 306 310 313 314 314 313 311 312 314 313 310 308 306 303 302 302 301 299 298 295 295 295 296 296 298 300 302 302 303 304 306 308 309 311 310 311 313
283 289 296 299 301 304 307 309 311 312 311 308 308 309 310 308 307 304 298 297 297 296 296 295 294 294 295 296 297 297 298 299 301 302 303 304 307 308 308 308 310 312
287 294 300 303 306 309 309 310 311 312 312 308 305 304 305 306 306 302 295 291 291 291 291 292 292 294 295 297 297 296 295 297 299 301 302 304 306 307 307 307 309 311
296 300 303 306 310 313 312 309 307 308 309 308 306 304 302 301 303 302 296 290 288 287 287 287 289 293 295 295 295 294 294 296 298 299 300 304 305 306 306 306 307 308
303 303 304 305 308 309 307 304 303 305 307 306 304 302 299 297 297 298 295 291 289 284 282 283 286 290 292 293 292 292 294 296 296 297 300 303 305 304 304 305 306 306
302 301 301 301 302 302 302 303 305 305 304 303 300 297 294 291 291 292 291 291 290 284 278 279 282 285 287 288 289 291 293 294 295 296 298 301 302 302 303 304 304 306
295 295 296 298 300 302 304 306 306 305 302 301 299 296 293 291 289 289 289 289 289 284 279 277 278 281 282 282 285 289 290 291 293 295 297 298 298 299 301 302 304 306
291 294 296 299 304 305 306 306 303 301 299 299 300 299 296 293 290 290 292 291 286 280 279 280 280 279 279 279 282 285 286 288 291 294 295 296 295 295 297 299 302 305
297 305 306 307 308 307 305 303 299 295 296 299 301 301 299 295 291 292 295 291 278 274 280 282 283 280 278 281 282 281 282 284 288 291 293 294 295 295 294 295 298 301
307 313 313 310 306 302 300 300 298 295 296 298 299 300 301 298 293 294 294 282 266 277 285 283 285 283 279 282 283 281 281 281 284 287 290 293 296 296 295 295 297 299
312 314 312 307 302 298 298 299 297 296 295 294 295 297 300 299 296 292 286 275 272 283 287 285 288 285 281 283 283 281 281 281 282 285 288 293 296 297 297 297 298 301
314 313 309 304 302 300 301 299 295 293 293 292 293 293 295 301 302 293 282 280 283 285 283 286 289 286 286 287 284 281 282 282 283 285 287 292 294 296 296 298 300 304
312 311 307 305 305 303 302 301 298 296 295 294 295 292 293 302 306 296 288 289 287 282 281 285 286 286 291 291 286 284 284 284 285 285 287 290 293 294 295 297 302 305
308 309 308 308 307 303 300 301 302 302 300 298 295 290 285 292 302 296 291 292 285 281 284 284 283 289 294 293 290 288 287 287 287 286 286 289 291 293 294 298 303 306
303 304 307 308 306 303 301 302 303 306 308 307 305 295 278 274 295 300 289 286 284 283 286 284 285 292 296 295 293 292 291 291 289 287 287 289 292 294 296 300 304 306
301 302 304 305 306 306 308 309 308 308 309 309 313 307 283 266 284 300 283 281 289 289 289 288 287 290 294 295 294 294 294 294 292 290 289 290 294 296 298 302 305 305
302 302 303 303 305 307 309 311 312 311 309 306 310 311 293 273 291 305 288 283 293 296 294 291 286 286 289 292 293 293 294 294 293 292 290 291 294 297 300 303 303 304
304 304 303 302 304 306 307 309 311 312 311 309 309 309 296 282 298 308 295 286 293 297 296 291 286 285 286 288 289 289 291 293 294 291 290 291 294 297 301 302 302 304
306 307 306 304 303 303 304 306 308 310 313 312 311 309 299 290 301 307 296 286 288 293 294 290 287 285 284 285 286 286 289 294 294 291 290 290 292 298 302 303 305 307
304 307 307 305 303 301 302 304 305 308 314 314 311 310 305 302 306 306 295 285 287 292 293 290 287 286 285 285 286 286 289 293 294 292 290 289 290 297 303 307 310 311
301 304 305 304 302 300 300 302 302 306 311 313 310 307 305 302 303 302 296 288 288 291 292 289 288 287 286 285 285 286 288 291 292 290 288 288 291 295 301 308 313 312
300 303 304 304 302 299 299 300 301 304 308 309 306 305 303 301 301 303 300 293 290 290 290 287 287 287 286 283 282 284 285 288 289 288 288 292 295 296 303 310 313 312
300 302 304 303 301 298 297 298 300 302 305 305 302 300 303 305 305 306 303 297 292 290 288 287 287 290 290 284 277 278 283 287 290 288 289 294 295 298 306 312 313 313
300 302 302 302 300 297 296 296 298 301 303 301 297 296 301 305 307 307 302 296 291 289 288 288 290 292 289 281 275 280 287 288 286 285 290 296 297 301 309 312 312 312
300 301 300 299 297 295 295 295 297 299 301 300 297 298 302 305 308 307 301 294 291 290 289 291 293 290 284 278 281 290 292 287 283 287 295 300 303 307 310 310 309 311